Volver al catálogo

USA 330

ActivoMilitarVLEO
NORAD 52891·PAYLOAD·🇺🇸 United States

Lanzado Jun 19, 2022 desde Cape Canaveral Space Force Station

Loading…

Próximos Pases (próximas 24 horas)

TLE

ObsoletoSource: Mike McCants

Época: Jan 12, 2025, 17:34 UTC

1 52891U 22064D   25012.73256558 0.00000000  00000-0  00000-0 0    03
2 52891  53.0058 287.8036 0006242 356.3156   3.6843 15.13407515    01

Sigue USA 330 en tiempo real con AllMySat

Download on the App Store